sat.trackr.live / text

‹ back to catalog

RAISE 2

NORAD 49397 · 2021-102C

PAYLOAD ACTIVE UNKNOWN

§ Identity

Operator
Country
JPN
Launch date
2021-11-09
Launch site
KSCUT
Launch vehicle
Mass (kg)
RCS (m²)

External: N2YO · Heavens-Above · Gunter

§ Orbital elements

Epoch: 2026-05-25T02:23:32.534304Z

Period
94.66 min
Inclination
97.3272°
Eccentricity
0.0008855
Mean motion
15.21192054 rev/d
Perigee alt
496.2 km
Apogee alt
508.3 km
Semi-major
6,880.4 km
B*
2.6648e-4
RAAN
178.7300°
Arg perigee
18.1024°
Mean anomaly
342.0525°
Rev number
24,992

§ Raw data

RAISE 21 49397U 21102C   26145.09968211  .00005881  00000+0  26648-3 0  99922 49397  97.3272 178.7300 0008855  18.1024 342.0525 15.21192054249929

JSON: /api/v1/satellites/49397 · /tle

For live sub-satellite position, see the globe view (requires WebGL).

§ Visibility from observer

Set your observer location to see the next 7 days of passes ≥ 10°. The values pass through the URL so the page stays shareable.

No JS? Fill the form by hand. The geolocation button needs JavaScript.